Flight Track Log - Related Links

Times and Time Zones

All times are in EST time to prevent confusion due to time zone crossing. See the N121JM flight status page for this flight to view local times or setup timezone preferences in your user account.

Time Position Orientation Groundspeed Altitude Reporting Facility
EST Latitude Longitude Course Direction KTS MPH feet Rate Location/Type
Sat 07:44:14 PM 37.7118 -122.2300 360° North 175 201 200  Level FlightAware ADS-B
Sat 07:44:36 PM 37.7247 -122.2490 311° West 197 227 1,400 3,512 Climbing FlightAware ADS-B
Sat 07:44:55 PM 37.7361 -122.2660 310° West 204 235 2,600 3,484 Climbing FlightAware ADS-B
Sat 07:45:07 PM 37.7434 -122.2780 308° West 224 258 3,200 3,214 Climbing FlightAware ADS-B
Sat 07:45:23 PM 37.7484 -122.2990 287° West 235 270 4,100 3,568 Climbing FlightAware ADS-B
Sat 07:45:44 PM 37.7525 -122.3300 280° West 261 300 5,400 3,840 Climbing FlightAware ADS-B
Sat 07:45:48 PM 37.7523 -122.3370 268° West 265 305 5,700 4,500 Climbing FlightAware ADS-B
Sat 07:45:52 PM 37.7516 -122.3410 258° West 265 305 6,000 4,714 Climbing FlightAware ADS-B
Sat 07:46:02 PM 37.7462 -122.3560 246° West 268 308 6,800 3,923 Climbing FlightAware ADS-B
Sat 07:46:18 PM 37.7312 -122.3720 220° Southwest 277 319 7,700 3,517 Climbing FlightAware ADS-B
Sat 07:46:31 PM 37.7160 -122.3840 212° Southwest 290 334 8,500 3,073 Climbing FlightAware ADS-B
Sat 07:46:59 PM 37.6804 -122.4040 204° Southwest 317 365 9,800 2,710 Climbing FlightAware ADS-B
Sat 07:47:02 PM 37.6757 -122.4060 199° South 322 371 9,900 1,636 Climbing FlightAware ADS-B
Sat 07:47:10 PM 37.6637 -122.4080 188° South 334 384 10,100 1,895 Climbing FlightAware ADS-B
Sat 07:47:21 PM 37.6468 -122.4090 183° South 342 394 10,500 2,400 Climbing FlightAware ADS-B
Sat 07:47:25 PM 37.6408 -122.4080 172° South 345 397 10,700 2,400 Climbing FlightAware ADS-B
Sat 07:47:31 PM 37.6313 -122.4060 171° South 348 400 10,900 2,625 Climbing FlightAware ADS-B
Sat 07:47:41 PM 37.6157 -122.3990 160° South 351 404 11,400 2,483 Climbing FlightAware ADS-B
Sat 07:48:00 PM 37.5892 -122.3780 148° Southeast 357 411 12,100 2,125 Climbing FlightAware ADS-B
Sat 07:48:29 PM 37.5535 -122.3340 136° Southeast 378 435 13,100 2,204 Climbing FlightAware ADS-B
Sat 07:48:49 PM 37.5293 -122.3030 135° Southeast 391 450 13,900 2,880 Climbing FlightAware ADS-B
Sat 07:49:19 PM 37.4909 -122.2530 134° Southeast 394 453 15,500 3,500 Climbing FlightAware ADS-B
Sat 07:49:49 PM 37.4529 -122.2040 134° Southeast 386 444 17,400 3,333 Climbing FlightAware ADS-B
Sat 07:50:22 PM 37.4108 -122.1510 135° Southeast 385 443 19,000 2,625 Climbing FlightAware ADS-B
Sat 07:50:53 PM 37.3696 -122.1010 136° Southeast 406 467 20,200 2,571 Climbing FlightAware ADS-B
Sat 07:51:25 PM 37.3277 -122.0460 134° Southeast 409 471 21,700 2,571 Climbing FlightAware ADS-B
Sat 07:51:49 PM 37.2970 -122.0050 133° Southeast 423 487 22,600 2,483 Climbing FlightAware ADS-B
Sat 07:52:23 PM 37.2486 -121.9440 135° Southeast 430 495 24,100 2,455 Climbing FlightAware ADS-B
Sat 07:52:55 PM 37.2034 -121.8880 135° Southeast 441 507 25,300 2,129 Climbing FlightAware ADS-B
Sat 07:53:25 PM 37.1584 -121.8320 135° Southeast 455 524 26,300 2,200 Climbing FlightAware ADS-B
Sat 07:53:55 PM 37.1133 -121.7750 135° Southeast 462 532 27,500 2,476 Climbing FlightAware ADS-B
Sat 07:54:28 PM 37.0643 -121.7130 135° Southeast 466 536 28,900 2,667 Climbing FlightAware ADS-B
Sat 07:54:58 PM 37.0187 -121.6560 135° Southeast 466 536 30,300 2,710 Climbing FlightAware ADS-B
Sat 07:55:30 PM 36.9695 -121.5940 135° Southeast 467 537 31,700 2,000 Climbing FlightAware ADS-B
Sat 07:56:01 PM 36.9223 -121.5340 135° Southeast 479 551 32,400 1,000 Climbing FlightAware ADS-B
Sat 07:56:42 PM 36.8562 -121.4540 136° Southeast 485 558 32,900 396 Climbing FlightAware ADS-B
Sat 07:57:32 PM 36.7782 -121.3560 135° Southeast 484 557 33,000 69 Climbing FlightAware ADS-B
Sat 07:58:09 PM 36.7344 -121.3114 135° Southeast 483 556 33,000  Level Los Angeles Center
Sat 07:59:11 PM 36.6411 -121.1906 134° Southeast 484 557 33,000 53 Level Los Angeles Center
Sat 08:00:03 PM 36.5428 -121.0789 138° Southeast 482 555 33,100  Climbing Oakland Center
Sat 08:01:04 PM 36.4431 -120.9653 137° Southeast 486 559 33,000 -49 Descending Oakland Center
Sat 08:02:05 PM 36.3431 -120.8497 137° Southeast 491 565 33,000  Level Oakland Center
Sat 08:03:06 PM 36.2425 -120.7336 137° Southeast 494 568 33,000  Level Oakland Center
Sat 08:04:07 PM 36.1364 -120.6231 140° Southeast 498 573 33,000  Level Oakland Center
Sat 08:05:08 PM 36.0353 -120.5050 137° Southeast 498 573 33,000  Level Oakland Center
Sat 08:06:09 PM 35.9339 -120.3875 137° Southeast 499 574 33,000  Level Oakland Center
Sat 08:07:10 PM 35.8300 -120.2728 138° Southeast 500 575 33,000 -49 Level Oakland Center
Sat 08:08:11 PM 35.7256 -120.1572 138° Southeast 500 575 32,900  Descending Oakland Center
Sat 08:09:12 PM 35.6217 -120.0425 138° Southeast 498 573 33,000 -98 Climbing Oakland Center
Sat 08:10:13 PM 35.5172 -119.9286 138° Southeast 497 572 32,700 -787 Descending Oakland Center
Sat 08:11:14 PM 35.4161 -119.8150 138° Southeast 490 564 31,400 -1,377 Descending Oakland Center
Sat 08:12:15 PM 35.3142 -119.6994 137° Southeast 494 568 29,900 -1,377 Descending Oakland Center
Sat 08:13:16 PM 35.2047 -119.5939 142° Southeast 498 573 28,600 -1,820 Descending Oakland Center
Sat 08:14:17 PM 35.0642 -119.4789 146° Southeast 503 579 26,200 -2,705 Descending Oakland Center
Sat 08:15:18 PM 34.9564 -119.3847 144° Southeast 484 557 23,100 -3,124 Descending Oakland Center
Sat 08:16:18 PM 34.8531 -119.2956 145° Southeast 465 535 19,900 -3,025 Descending Oakland Center
Sat 08:17:19 PM 34.7517 -119.2153 147° Southeast 445 512 17,000 -2,951 Descending Oakland Center
Sat 08:18:20 PM 34.6611 -119.1322 143° Southeast 420 483 13,900 -1,613 Descending Oakland Center
Sat 08:24:23 PM 34.2578 -118.7425 143° Southeast 268 308 5,600 -1,328 Descending FlightAware ADS-B
Sat 08:25:11 PM 34.2333 -118.6833 143° Southeast 256 295 4,800 -966 Descending Southern California TRACON
Sat 08:25:50 PM 34.2197 -118.6367 109° East 256 295 4,200 -891 Descending Los Angeles Center
Sat 08:26:52 PM 34.1811 -118.5850 132° Southeast 224 258 3,300 -780 Descending Los Angeles Center
Sat 08:27:53 PM 34.1486 -118.5336 127° Southeast 204 235 2,600 -927 Descending Los Angeles Center
Sat 08:28:55 PM 34.1672 -118.4906 62° Northeast 182 209 1,400 -1,161 Descending Los Angeles Center

Login

Don't have an account? Register now (free) for customized features, flight alerts, and more!